Weather History for Cody, WY

Change the Weather History Date:

Thursday, November 1, 2012

  Actual Average Record
Temperature  
Mean Temperature 55 °F -  
Max Temperature 64 °F 50 °F 72 °F (1965)
Min Temperature 46 °F 28 °F 1 °F (1935)
Degree Days  
Heating Degree Days 10    
Growing Degree Days 5 (Base 50)    
Moisture  
Dew Point 27 °F    
Average Humidity 36    
Maximum Humidity 50    
Minimum Humidity 19    
Precipitation  
Precipitation 0.00 in - - ()
Sea Level Pressure  
Sea Level Pressure 29.90 in    
Wind  
Wind Speed 7 mph (SW)    
Max Wind Speed 15 mph    
Max Gust Speed 24 mph    
Visibility 10 miles    
Events      
Averages and records for this station are not official NWS values.
T = Trace of Precipitation, MM = Missing Value Source: NWS Daily Summary

Daily Weather History Graph

Daily Weather History Graph

Search for Another Location

Airport:

Trip Planner

Search our weather history database for the weather conditions in past years. The results will help you decide how hot, cold, wet, or windy it might be!

Date:

Astronomy

Nov. 01, 2012 Rise Set
Actual Time 7:54 AM MDT 6:04 PM MDT
Civil Twilight 7:23 AM MDT 6:34 PM MDT
Nautical Twilight 6:49 AM MDT 7:09 PM MDT
Astronomical Twilight 6:15 AM MDT 7:42 PM MDT
Moon 7:58 PM MDT (11/1) 10:34 AM MDT (11/1)
Length of Visible Light 11h 10m
Length of Day
10h 10m
Waning Gibbous, 92% of the Moon is Illuminated
Nov 1
Waning Gibbous
Nov 6
Last Quarter
Nov 13
New
Nov 20
First Quarter
Nov 28
Full

Hourly Weather History & Observations

Time (MDT) Temp. Windchill Dew Point Humidity Pressure Visibility Wind Dir Wind Speed Gust Speed Precip Events Conditions
12:15 AM 50.0 °F - 26.6 °F 40% 29.98 in 10.0 mi Calm Calm - N/A   Clear
12:35 AM 51.8 °F - 28.4 °F 41% 29.98 in 10.0 mi Calm Calm - N/A   Clear
12:55 AM 51.8 °F - 26.6 °F 38% 29.97 in 10.0 mi Calm Calm - N/A   Clear
1:15 AM 51.8 °F - 26.6 °F 38% 29.97 in 10.0 mi SSE 11.5 mph - N/A   Clear
1:35 AM 51.8 °F - 28.4 °F 41% 29.96 in 10.0 mi South 10.4 mph - N/A   Clear
1:55 AM 51.8 °F - 28.4 °F 41% 29.95 in 10.0 mi SSW 3.5 mph - N/A   Clear
2:15 AM 55.4 °F - 26.6 °F 33% 29.94 in 10.0 mi SW 12.7 mph - N/A   Clear
2:35 AM 55.4 °F - 26.6 °F 33% 29.94 in 10.0 mi SSW 10.4 mph - N/A   Clear
2:55 AM 51.8 °F - 26.6 °F 38% 29.93 in 10.0 mi South 11.5 mph - N/A   Clear
3:15 AM 50.0 °F - 26.6 °F 40% 29.92 in 10.0 mi WNW 3.5 mph - N/A   Clear
3:35 AM 50.0 °F - 28.4 °F 43% 29.92 in 10.0 mi SE 5.8 mph - N/A   Clear
3:55 AM 51.8 °F - 28.4 °F 41% 29.91 in 10.0 mi SW 3.5 mph - N/A   Clear
4:15 AM 55.4 °F - 26.6 °F 33% 29.91 in 10.0 mi SSW 15.0 mph - N/A   Clear
4:35 AM 53.6 °F - 26.6 °F 35% 29.90 in 10.0 mi SSW 15.0 mph - N/A   Clear
4:55 AM 51.8 °F - 28.4 °F 41% 29.91 in 10.0 mi SSW 15.0 mph - N/A   Clear
5:15 AM 51.8 °F - 28.4 °F 41% 29.91 in 10.0 mi SSW 9.2 mph - N/A   Clear
5:35 AM 50.0 °F - 28.4 °F 43% 29.90 in 10.0 mi WSW 4.6 mph - N/A   Clear
5:55 AM 50.0 °F - 28.4 °F 43% 29.90 in 10.0 mi SW 6.9 mph - N/A   Clear
6:35 AM 50.0 °F - 28.4 °F 43% 29.89 in 10.0 mi SSW 11.5 mph - N/A   Clear
6:55 AM 48.2 °F - 28.4 °F 46% 29.89 in 10.0 mi SSW 9.2 mph - N/A   Clear
7:35 AM 48.2 °F - 28.4 °F 46% 29.88 in 10.0 mi SW 6.9 mph - N/A   Clear
8:15 AM 48.2 °F - 28.4 °F 46% 29.88 in 10.0 mi South 9.2 mph - N/A   Clear
8:35 AM 46.4 °F 44.3 °F 28.4 °F 50% 29.88 in 10.0 mi SE 4.6 mph - N/A   Clear
8:55 AM 48.2 °F - 26.6 °F 43% 29.88 in 10.0 mi SW 8.1 mph - N/A   Clear
9:15 AM 48.2 °F - 28.4 °F 46% 29.88 in 10.0 mi WSW 8.1 mph - N/A   Clear
9:35 AM 51.8 °F - 26.6 °F 38% 29.88 in 10.0 mi SW 12.7 mph - N/A   Clear
10:15 AM 48.2 °F - 28.4 °F 46% 29.88 in 10.0 mi West 6.9 mph - N/A   Clear
10:35 AM 55.4 °F - 28.4 °F 36% 29.87 in 10.0 mi WSW 6.9 mph - N/A   Clear
10:55 AM 57.2 °F - 28.4 °F 33% 29.87 in 10.0 mi SW 8.1 mph - N/A   Clear
11:15 AM 59.0 °F - 28.4 °F 31% 29.87 in 10.0 mi SW 8.1 mph - N/A   Clear
11:35 AM 62.6 °F - 26.6 °F 26% 29.87 in 10.0 mi SW 10.4 mph - N/A   Clear
12:15 PM 62.6 °F - 21.2 °F 20% 29.86 in 10.0 mi WSW 6.9 mph - N/A   Clear
1:15 PM 64.4 °F - 23.0 °F 21% 29.85 in 10.0 mi West 9.2 mph - N/A   Clear
1:35 PM 64.4 °F - 23.0 °F 21% 29.84 in 10.0 mi West 11.5 mph 16.1 mph N/A   Clear
1:55 PM 64.4 °F - 21.2 °F 19% 29.84 in 10.0 mi West 10.4 mph 16.1 mph N/A   Mostly Cloudy
2:15 PM 64.4 °F - 23.0 °F 21% 29.84 in 10.0 mi WSW 12.7 mph 18.4 mph N/A   Overcast
2:35 PM 62.6 °F - 24.8 °F 24% 29.84 in 10.0 mi West 10.4 mph 16.1 mph N/A   Overcast
2:55 PM 64.4 °F - 24.8 °F 22% 29.84 in 10.0 mi WSW 10.4 mph 17.3 mph N/A   Overcast
3:15 PM 64.4 °F - 24.8 °F 22% 29.83 in 10.0 mi West 9.2 mph - N/A   Overcast
3:35 PM 64.4 °F - 24.8 °F 22% 29.84 in 10.0 mi WSW 9.2 mph - N/A   Mostly Cloudy
4:15 PM 62.6 °F - 26.6 °F 26% 29.84 in 10.0 mi West 9.2 mph - N/A   Overcast
4:35 PM 60.8 °F - 26.6 °F 27% 29.85 in 10.0 mi West 8.1 mph - N/A   Overcast
4:55 PM 60.8 °F - 26.6 °F 27% 29.86 in 10.0 mi West 6.9 mph 17.3 mph N/A   Overcast
5:15 PM 60.8 °F - 28.4 °F 29% 29.86 in 10.0 mi West 10.4 mph 18.4 mph N/A   Overcast
5:35 PM - - - N/A% 29.86 in 10.0 mi West 8.1 mph - N/A   Overcast
5:55 PM - - - N/A% 29.87 in 10.0 mi WSW 8.1 mph - N/A   Overcast
6:15 PM - - - N/A% 29.87 in 10.0 mi West 10.4 mph - N/A   Overcast
6:35 PM - - - N/A% 29.88 in 10.0 mi West 9.2 mph - N/A   Overcast
6:55 PM 53.6 °F - 30.2 °F 41% 29.89 in 10.0 mi WSW 5.8 mph - N/A   Overcast
7:15 PM 53.6 °F - 30.2 °F 41% 29.89 in 10.0 mi West 5.8 mph - N/A   Overcast
7:35 PM 53.6 °F - 30.2 °F 41% 29.89 in 10.0 mi SW 4.6 mph - N/A   Overcast
7:55 PM 51.8 °F - 30.2 °F 44% 29.89 in 10.0 mi SSW 6.9 mph - N/A   Overcast
8:15 PM 51.8 °F - 30.2 °F 44% 29.89 in 10.0 mi SW 8.1 mph - N/A   Mostly Cloudy
8:35 PM 53.6 °F - 30.2 °F 41% 29.89 in 10.0 mi West 8.1 mph - N/A   Scattered Clouds
8:55 PM 51.8 °F - 30.2 °F 44% 29.90 in 10.0 mi West 10.4 mph - N/A   Partly Cloudy
9:15 PM 51.8 °F - 30.2 °F 44% 29.91 in 10.0 mi West 6.9 mph 17.3 mph N/A   Clear
9:35 PM 51.8 °F - 28.4 °F 41% 29.91 in 10.0 mi West 6.9 mph 16.1 mph N/A   Partly Cloudy
9:55 PM 51.8 °F - 28.4 °F 41% 29.92 in 10.0 mi West 6.9 mph - N/A   Clear
10:15 PM 51.8 °F - 26.6 °F 38% 29.93 in 10.0 mi West 12.7 mph - N/A   Clear
10:35 PM 51.8 °F - 21.2 °F 30% 29.93 in 10.0 mi West 12.7 mph 16.1 mph N/A   Clear
10:55 PM 51.8 °F - 21.2 °F 30% 29.94 in 10.0 mi WNW 4.6 mph - N/A   Partly Cloudy
11:15 PM 51.8 °F - 21.2 °F 30% 29.94 in 10.0 mi SW 4.6 mph - N/A   Mostly Cloudy
11:35 PM 51.8 °F - 23.0 °F 33% 29.94 in 10.0 mi SW 6.9 mph - N/A   Overcast
11:55 PM 51.8 °F - 24.8 °F 35% 29.94 in 10.0 mi WSW 13.8 mph 24.2 mph N/A   Partly Cloudy